Anderson, SC

5:00 PM EDT on August 28, 2016 (GMT -0400)
Anderson Regional

Weather History for KAND - October, 2013

Change the Weather History Date:

Saturday, October 19, 2013

  Actual Average Record
Temperature  
Mean Temperature 60 °F -  
Max Temperature 66 °F 72 °F 86 °F (1984)
Min Temperature 55 °F 47 °F 33 °F (1978)
Degree Days  
Heating Degree Days 6    
Growing Degree Days 10 (Base 50)    
Moisture  
Dew Point 57 °F    
Average Humidity 90    
Maximum Humidity 100    
Minimum Humidity 70    
Precipitation  
Precipitation 0.01 in - - ()
Sea Level Pressure  
Sea Level Pressure 29.93 in    
Wind  
Wind Speed 2 mph (WSW)    
Max Wind Speed 13 mph    
Max Gust Speed -    
Visibility 9 miles    
Events Rain    
Averages and records for this station are not official NWS values.
T = Trace of Precipitation, MM = Missing Value Source: NWS Daily Summary

Daily Weather History Graph

Daily Weather History Graph

Search for Another Location

Airport or City:

Trip Planner

Search our weather history database for the weather conditions in past years. The results will help you decide how hot, cold, wet, or windy it might be!

Date:

Astronomy

Oct. 19, 2013 Rise Set
Actual Time 7:39 AM EDT 6:51 PM EDT
Civil Twilight 7:14 AM EDT 7:16 PM EDT
Nautical Twilight 6:45 AM EDT 7:45 PM EDT
Astronomical Twilight 6:15 AM EDT 8:14 PM EDT
Moon 7:21 PM EDT (10/19) 8:13 AM EDT (10/19)
Length of Visible Light 12h 02m
Length of Day
11h 11m
Waxing Gibbous, 99% of the Moon is Illuminated
Oct 19
Waxing Gibbous
Oct 26
Last Quarter
Nov 3
New
Nov 10
First Quarter
Nov 17
Full

Hourly Weather History & Observations

Time (EDT) Temp. Dew Point Humidity Pressure Visibility Wind Dir Wind Speed Gust Speed Precip Events Conditions
12:56 AM 60.1 °F 57.9 °F 93% 29.95 in 10.0 mi Calm Calm - N/A   Scattered Clouds
1:05 AM 59.0 °F 57.2 °F 94% 29.97 in 10.0 mi Calm Calm - N/A   Mostly Cloudy
1:22 AM 59.0 °F 57.2 °F 94% 29.96 in 10.0 mi Calm Calm - N/A   Scattered Clouds
1:56 AM 59.0 °F 57.9 °F 96% 29.94 in 10.0 mi Calm Calm - N/A   Clear
2:56 AM 59.0 °F 59.0 °F 100% 29.94 in 10.0 mi Calm Calm - N/A   Partly Cloudy
3:56 AM 59.0 °F 57.9 °F 96% 29.93 in 10.0 mi Calm Calm - N/A   Scattered Clouds
4:56 AM 59.0 °F 59.0 °F 100% 29.92 in 10.0 mi Calm Calm - 0.01 in   Mostly Cloudy
5:19 AM 60.8 °F 59.0 °F 94% 29.93 in 9.0 mi Calm Calm - N/A   Overcast
5:56 AM 59.0 °F 59.0 °F 100% 29.93 in 6.0 mi Calm Calm - 0.00 in   Overcast
6:06 AM 59.0 °F 59.0 °F 100% 29.94 in 6.0 mi Calm Calm - N/A   Mostly Cloudy
6:18 AM 59.0 °F 59.0 °F 100% 29.94 in 5.0 mi SW 4.6 mph - N/A   Overcast
6:35 AM 59.0 °F 59.0 °F 100% 29.94 in 6.0 mi Calm Calm - N/A   Overcast
6:56 AM 59.0 °F 59.0 °F 100% 29.92 in 5.0 mi Calm Calm - N/A   Mostly Cloudy
7:56 AM 59.0 °F 59.0 °F 100% 29.91 in 8.0 mi South 3.5 mph - 0.00 in   Mostly Cloudy
8:56 AM 59.0 °F 57.9 °F 96% 29.94 in 10.0 mi WSW 4.6 mph - N/A   Mostly Cloudy
9:56 AM 60.1 °F 57.9 °F 93% 29.96 in 10.0 mi WSW 6.9 mph - N/A   Mostly Cloudy
10:56 AM 61.0 °F 55.9 °F 83% 29.93 in 10.0 mi South 4.6 mph - N/A   Mostly Cloudy
11:56 AM 62.1 °F 55.0 °F 78% 29.94 in 10.0 mi West 8.1 mph - N/A   Mostly Cloudy
12:56 PM 63.0 °F 54.0 °F 72% 29.93 in 10.0 mi SW 8.1 mph - N/A   Mostly Cloudy
1:56 PM 64.0 °F 55.0 °F 73% 29.91 in 10.0 mi SW 11.5 mph - N/A   Mostly Cloudy
2:56 PM 64.0 °F 54.0 °F 70% 29.91 in 10.0 mi WSW 9.2 mph - N/A   Overcast
3:56 PM 63.0 °F 55.0 °F 75% 29.91 in 10.0 mi WSW 12.7 mph - 0.00 in Rain Light Rain
4:56 PM 63.0 °F 55.9 °F 78% 29.90 in 10.0 mi WSW 6.9 mph - 0.00 in   Clear
5:56 PM 62.1 °F 54.0 °F 75% 29.90 in 10.0 mi WSW 10.4 mph - N/A   Clear
6:56 PM 60.1 °F 55.0 °F 83% 29.91 in 10.0 mi Calm Calm - N/A   Clear
7:56 PM 59.0 °F 55.0 °F 87% 29.92 in 10.0 mi SW 3.5 mph - N/A   Clear
8:56 PM 57.0 °F 54.0 °F 89% 29.93 in 10.0 mi WSW 3.5 mph - N/A   Clear
9:56 PM 57.0 °F 55.0 °F 93% 29.93 in 10.0 mi Calm Calm - N/A   Clear
10:56 PM 55.9 °F 54.0 °F 93% 29.94 in 10.0 mi WNW 4.6 mph - N/A   Clear
11:56 PM 55.0 °F 54.0 °F 96% 29.95 in 10.0 mi West 4.6 mph - N/A   Clear